Wind_Speed
14 15 14 14 14 12 9 6 5 4 3 3 2 2 2 3 3 2 3 4 4 4 4 2 3 3 2 3 4 3 3 3 2 2 2 2 2 1 1 2 3 2 2 3 4 4 4 3 3
14 14 14 14 13 9 7 6 5 4 3 3 3 2 3 3 3 3 3 3 4 4 4 3 3 2 2 2 3 3 3 2 2 2 1 2 2 2 2 3 3 3 2 3 3 3 3 3 3
14 13 13 12 11 7 6 6 5 5 5 4 4 4 4 4 3 3 3 3 3 3 3 3 2 2 2 2 2 3 3 2 2 2 3 2 2 2 3 3 3 3 3 3 3 3 3 3 2
13 14 14 13 10 8 7 7 6 5 5 4 4 4 4 4 4 4 4 4 4 4 4 3 2 2 2 2 2 3 3 2 2 2 3 3 3 3 3 3 3 2 3 2 2 2 2 2 2
14 14 15 13 10 8 8 8 7 6 5 5 5 5 5 5 5 5 5 5 4 4 4 3 3 3 3 3 3 2 3 3 2 2 3 3 3 4 3 3 3 3 2 2 2 2 2 1 2
14 16 14 10 9 8 8 8 7 7 7 6 6 6 6 6 6 6 6 6 5 5 4 4 3 3 3 2 2 2 3 4 4 3 3 3 3 3 3 3 3 2 2 2 2 1 1 1 1
14 15 13 9 8 8 9 9 8 8 7 7 7 7 7 7 7 6 6 6 5 5 4 4 3 4 4 3 2 2 2 3 4 4 3 2 2 2 3 3 3 2 2 1 1 1 1 2 1
13 14 13 11 8 8 9 9 8 8 7 7 7 7 7 7 7 6 6 6 5 5 4 5 5 5 5 4 3 2 3 3 4 4 4 3 2 2 2 1 2 2 1 1 0 0 0 1 1
12 12 12 9 7 7 8 8 8 8 7 7 7 7 7 7 7 6 6 6 5 6 5 6 5 5 4 4 4 3 4 4 4 3 3 3 2 2 2 1 1 1 1 0 0 1 1 1 1
10 10 9 7 6 7 8 8 9 8 8 7 7 8 8 8 7 7 7 6 6 6 6 7 6 5 4 4 4 4 4 4 4 4 3 3 2 2 2 1 1 1 0 0 0 0 1 1 1
9 8 8 8 7 7 8 9 9 9 8 8 8 8 8 8 7 7 8 7 7 6 6 6 6 5 5 5 5 4 5 5 4 4 4 3 3 3 3 2 2 2 1 0 1 1 1 2 1
8 8 8 8 7 7 7 8 8 8 8 9 8 8 8 8 9 8 8 8 7 7 6 6 6 5 5 4 4 5 5 5 5 5 5 4 4 4 3 3 3 2 1 1 2 2 2 2 1
7 9 9 8 7 7 7 7 7 7 8 8 9 8 8 9 9 10 9 8 8 7 7 6 6 5 5 5 5 5 5 5 5 5 4 4 4 4 4 3 3 3 2 1 2 2 2 1 1
10 11 10 9 9 9 7 7 7 6 8 8 9 9 8 9 10 10 10 8 8 7 7 7 6 6 5 5 5 5 5 5 6 5 5 5 4 4 3 2 3 3 2 2 2 2 2 2 2
10 11 11 10 8 8 8 9 8 7 7 8 9 10 10 9 9 10 10 9 8 7 7 7 6 6 6 5 5 5 5 5 6 5 5 5 5 3 2 2 3 3 3 2 2 3 3 3 3
10 10 9 8 7 8 8 8 8 8 8 9 9 10 10 10 10 10 10 10 9 8 7 7 7 6 6 6 5 5 5 6 6 6 5 5 4 4 3 3 3 3 3 3 3 2 3 4 3
8 7 6 6 6 7 7 8 9 9 9 9 9 9 10 10 11 11 10 10 10 9 8 7 7 7 7 6 5 5 6 6 6 6 5 5 4 4 4 4 3 3 3 3 3 3 4 4 3
3 3 3 4 6 6 7 7 8 9 9 10 10 10 10 10 11 11 11 11 10 10 9 8 8 8 7 7 6 6 6 6 6 6 5 5 4 4 5 4 4 3 3 3 4 4 3 4 3
1 1 2 3 5 5 7 7 8 8 9 10 10 10 10 10 11 12 12 11 10 10 10 9 8 8 8 8 8 6 6 6 5 5 4 4 4 4 5 4 3 4 4 4 4 4 4 5 4
2 2 4 3 4 5 6 7 8 8 9 9 9 9 10 10 10 11 12 11 11 10 10 9 8 8 8 9 9 8 7 5 5 4 4 4 4 4 4 4 4 5 5 5 5 4 5 5 5
2 3 3 3 3 4 6 7 8 9 9 10 10 10 10 10 11 11 12 11 11 10 10 9 9 9 8 9 9 9 8 6 5 5 5 4 4 4 4 4 5 5 5 5 5 5 5 4 4
3 3 1 2 2 3 5 7 8 8 9 9 10 10 10 10 10 11 11 11 10 10 10 9 10 10 9 8 8 9 8 7 6 6 6 5 5 5 5 5 6 6 5 5 5 5 5 4 4
5 3 2 2 3 3 5 7 7 7 9 9 9 10 10 10 10 11 11 11 11 11 10 9 10 10 10 9 9 9 9 8 8 7 7 7 6 6 6 6 6 5 6 6 6 5 5 4 5
5 3 4 5 4 4 6 8 8 7 8 9 9 9 10 10 10 11 12 12 12 11 11 10 10 10 11 11 10 9 9 9 8 8 7 7 7 7 8 8 7 6 6 6 6 5 5 5 5
7 4 3 6 5 5 6 8 10 9 9 9 9 9 10 10 11 12 12 11 12 11 12 11 10 10 11 11 11 10 10 10 9 9 8 8 8 8 8 9 8 7 6 6 6 6 6 6 6
7 5 5 6 6 7 7 10 10 11 11 9 10 10 11 11 11 11 12 11 12 12 12 11 11 11 11 11 11 11 10 10 10 9 9 9 9 8 8 8 8 7 6 6 7 7 7 7 8
10 8 7 7 8 10 9 9 10 11 11 11 11 11 11 11 11 11 12 12 12 12 12 12 12 11 12 11 11 12 11 11 10 10 10 10 10 10 10 9 9 8 7 7 7 8 8 8 9
11 10 9 9 10 9 10 11 10 12 14 14 14 13 12 12 12 12 12 13 13 13 14 13 13 13 13 13 13 13 12 11 11 11 11 11 11 11 11 10 9 9 8 8 9 9 10 10 9
15 12 11 12 11 9 11 14 13 11 14 16 16 15 13 13 13 13 13 14 14 15 15 14 14 14 13 13 13 13 13 12 11 11 11 11 11 11 11 11 11 10 10 10 10 10 11 11 10
16 15 14 13 13 12 13 16 14 13 16 16 16 15 15 15 15 15 15 15 15 15 15 16 16 15 14 14 14 13 13 13 13 13 12 12 12 12 11 12 12 12 11 11 11 12 12 12 12
Wind_Direction
79 77 75 78 71 69 66 60 63 57 63 64 68 70 45 30 34 42 36 30 20 18 30 73 89 88 94 85 72 67 68 81 75 61 55 56 62 108 114 110 102 111 118 102 102 93 81 73 60
79 76 68 65 64 56 49 47 54 55 53 58 52 47 42 34 45 53 48 39 28 24 39 66 80 86 98 83 72 65 49 70 76 62 55 61 72 107 111 101 103 92 89 90 94 87 78 71 57
80 75 73 63 57 49 42 44 45 52 52 51 56 52 46 38 44 55 53 38 28 28 36 42 70 108 102 73 64 41 25 31 63 50 48 50 64 82 97 97 99 75 65 74 90 93 78 71 55
80 71 66 58 46 40 43 47 48 50 48 51 53 51 50 51 51 49 46 44 37 27 32 38 76 90 72 55 46 25 21 13 56 53 43 51 59 62 65 58 92 72 58 81 93 86 89 84 63
77 72 63 51 38 39 44 46 42 47 44 52 57 52 48 55 54 48 40 39 35 37 37 47 52 57 58 49 41 38 27 19 40 67 55 44 53 53 65 62 72 63 45 70 80 72 84 107 56
75 72 68 53 36 38 45 48 50 50 49 58 59 54 48 52 51 50 43 35 33 46 38 33 47 46 52 53 53 48 33 34 42 47 45 38 45 56 66 64 68 69 68 80 84 58 57 21 40
68 68 73 58 48 46 45 49 49 51 54 57 54 51 49 47 48 48 40 35 35 37 32 28 27 31 40 31 21 42 28 23 22 19 39 30 28 52 63 72 67 62 64 78 88 67 43 47 49
66 67 67 57 51 48 48 49 49 52 49 52 49 48 50 47 45 43 36 36 37 35 31 28 27 28 29 26 23 30 36 31 24 22 33 26 21 29 53 67 69 67 64 65 78 272 39 36 26
71 67 61 53 42 50 53 49 48 48 47 51 49 41 38 38 37 38 38 35 36 36 28 21 30 37 27 21 21 28 39 40 27 22 26 30 28 26 16 34 79 86 78 67 44 326 299 301 297
68 64 59 62 55 54 58 57 52 47 45 43 47 43 40 36 37 38 36 40 40 39 32 30 32 33 26 15 26 27 32 25 20 17 16 20 21 6 5 12 15 43 35 279 225 270 293 298 282
64 71 64 65 66 61 60 61 57 48 43 37 38 39 37 32 31 34 35 35 39 39 34 32 31 29 27 21 23 22 22 16 11 7 2 351 354 353 3 1 352 23 27 314 266 277 295 306 295
62 65 74 72 65 65 60 62 54 47 38 36 33 31 32 31 28 29 32 35 40 42 36 27 22 21 21 18 15 16 10 5 3 3 0 351 345 345 354 8 7 356 344 344 344 314 310 302 300
64 67 71 74 60 61 53 53 50 40 36 35 33 32 31 27 26 24 25 33 35 38 36 32 26 21 17 12 6 3 5 2 3 3 5 3 359 351 347 4 358 2 347 316 308 303 339 342 347
66 62 66 67 64 61 53 54 61 45 37 33 29 28 27 26 27 25 28 31 30 28 26 25 25 22 16 10 4 1 3 6 5 359 358 5 7 5 356 355 353 351 346 333 309 302 322 330 339
68 55 55 55 50 48 41 37 49 49 33 29 27 25 24 24 27 26 28 27 24 25 24 25 24 23 18 9 3 2 3 2 359 354 356 8 13 12 354 356 348 338 338 342 318 308 300 309 320
50 44 46 42 34 40 38 33 37 42 28 28 28 26 24 24 28 26 27 25 24 26 26 23 21 18 15 9 6 3 358 357 355 354 357 358 5 6 7 9 356 347 343 341 339 322 321 324 323
33 19 30 27 20 27 31 26 28 34 24 26 26 23 22 23 23 25 25 23 23 24 23 21 19 18 15 11 13 11 5 3 359 357 357 356 3 1 355 357 356 348 339 337 336 332 332 327 312
61 4 14 13 14 22 25 22 23 25 20 19 20 20 19 21 20 20 22 22 23 22 21 18 17 23 22 15 11 10 8 6 2 2 0 7 4 360 352 343 347 346 335 331 326 317 328 333 329
125 272 324 20 16 15 17 11 8 12 14 9 10 11 12 15 17 18 17 21 24 23 21 20 21 24 25 19 11 5 1 2 2 7 4 10 4 354 351 344 343 343 336 328 325 322 324 318 318
181 289 316 3 16 10 359 352 349 351 360 359 3 3 5 11 14 16 16 17 20 23 21 21 20 20 20 17 12 7 7 6 10 14 14 13 9 356 355 9 1 348 336 327 327 326 324 328 321
220 257 287 339 352 0 349 346 342 339 345 350 357 2 6 9 12 13 14 17 18 20 21 21 19 17 15 13 11 12 11 10 9 9 4 356 348 341 345 352 349 339 332 325 324 320 315 325 322
246 262 271 340 335 334 319 324 335 340 332 340 351 357 2 5 9 9 11 12 12 13 14 16 15 13 10 4 6 7 4 7 5 2 355 344 332 328 327 331 333 327 326 323 316 311 309 314 326
230 262 262 276 274 289 309 319 328 323 316 330 345 351 355 359 1 3 5 5 4 4 6 8 7 8 10 5 1 360 359 355 354 354 350 341 333 325 322 321 321 320 315 313 313 311 306 314 324
218 227 269 274 286 285 306 310 306 307 316 327 333 343 349 349 350 352 356 357 356 355 358 0 0 1 4 4 357 355 353 349 345 342 339 335 330 324 319 317 315 313 315 319 321 319 317 316 312
230 219 267 302 297 301 309 287 295 307 319 326 323 331 343 346 347 346 349 353 352 349 349 350 350 353 355 357 354 350 349 348 343 338 334 331 326 319 310 307 308 305 311 316 317 312 307 314 312
230 213 250 284 291 287 274 278 292 302 312 317 321 326 332 337 339 340 342 344 344 343 342 343 340 341 345 349 349 345 341 340 338 334 330 329 328 323 317 312 306 300 301 306 308 306 305 309 309
228 232 239 262 275 269 263 273 283 292 305 312 310 313 323 330 334 335 334 336 337 337 337 335 334 336 338 339 339 338 335 334 332 329 326 325 322 322 321 315 305 299 296 298 300 303 306 306 304
241 240 239 252 265 272 280 276 270 286 293 299 302 304 309 321 327 328 330 329 329 330 331 330 329 330 331 334 334 333 330 328 327 326 320 318 318 318 320 315 308 299 295 297 300 304 306 304 306
244 242 241 249 252 260 279 284 281 277 285 291 296 296 299 307 315 320 324 325 324 325 327 327 323 324 325 327 329 327 324 321 321 322 320 318 318 316 315 309 307 301 298 299 301 305 306 304 304
249 247 244 252 256 260 273 281 278 282 281 283 286 291 294 296 302 309 314 317 318 320 321 321 322 318 318 320 321 320 320 320 319 317 316 316 315 318 318 313 311 306 302 299 302 302 302 302 303
Height
5883 5883 5882 5883 5883 5883 5884 5884 5884 5883 5883 5883 5882 5882 5882 5882 5883 5884 5882 5880 5879 5879 5878 5878 5878 5878 5878 5878 5878 5878 5878 5878 5878 5878 5878 5878 5878 5878 5878 5878 5878 5879 5879 5880 5880 5880 5880 5880 5880
5886 5886 5886 5885 5885 5885 5886 5886 5885 5885 5884 5884 5884 5883 5883 5883 5883 5882 5881 5881 5880 5880 5879 5879 5879 5879 5879 5879 5879 5879 5879 5879 5879 5879 5879 5878 5878 5878 5878 5879 5879 5879 5880 5880 5880 5881 5881 5881 5881
5888 5887 5888 5887 5887 5888 5888 5887 5887 5886 5886 5885 5885 5885 5885 5884 5884 5883 5882 5882 5881 5881 5880 5880 5880 5880 5880 5880 5880 5880 5880 5880 5879 5880 5879 5879 5879 5879 5879 5879 5879 5880 5881 5881 5881 5881 5881 5881 5881
5890 5890 5890 5891 5890 5890 5890 5889 5888 5888 5888 5887 5887 5887 5885 5885 5885 5884 5883 5883 5882 5882 5881 5881 5881 5880 5881 5881 5881 5881 5881 5881 5880 5881 5880 5880 5880 5880 5880 5880 5880 5881 5881 5881 5882 5882 5882 5882 5882
5891 5890 5892 5893 5893 5893 5891 5891 5890 5889 5889 5889 5888 5888 5887 5886 5886 5885 5884 5884 5883 5883 5882 5881 5881 5881 5882 5882 5882 5882 5882 5882 5881 5881 5881 5881 5881 5881 5881 5881 5881 5882 5882 5882 5883 5883 5883 5883 5883
5892 5893 5895 5896 5896 5895 5894 5893 5892 5891 5891 5890 5890 5889 5888 5887 5886 5886 5885 5885 5884 5883 5883 5882 5882 5882 5882 5883 5883 5883 5883 5883 5882 5882 5882 5882 5882 5882 5882 5882 5882 5882 5882 5883 5883 5883 5883 5883 5883
5895 5895 5897 5899 5898 5897 5896 5895 5895 5894 5893 5892 5891 5891 5889 5888 5888 5887 5887 5886 5885 5885 5884 5884 5883 5883 5883 5883 5883 5884 5883 5883 5883 5883 5883 5883 5883 5883 5882 5883 5883 5883 5883 5883 5883 5884 5884 5884 5884
5897 5898 5899 5900 5901 5899 5899 5897 5897 5896 5895 5894 5893 5892 5891 5891 5890 5889 5888 5887 5887 5886 5886 5885 5885 5884 5884 5884 5884 5884 5884 5884 5884 5884 5884 5883 5884 5883 5883 5883 5883 5883 5883 5883 5884 5884 5884 5884 5884
5902 5903 5903 5903 5902 5902 5901 5900 5899 5898 5896 5895 5894 5894 5893 5892 5891 5890 5889 5889 5888 5887 5887 5886 5886 5885 5885 5885 5885 5885 5885 5885 5885 5885 5884 5884 5884 5884 5884 5884 5884 5884 5884 5884 5884 5884 5884 5884 5884
5905 5906 5906 5905 5905 5904 5903 5902 5901 5900 5899 5897 5896 5895 5894 5894 5893 5892 5891 5890 5889 5889 5888 5888 5887 5886 5886 5886 5886 5885 5885 5885 5885 5885 5885 5885 5884 5884 5884 5884 5884 5884 5884 5884 5884 5884 5884 5884 5884
5908 5908 5907 5907 5907 5906 5905 5904 5903 5902 5901 5899 5898 5897 5896 5895 5894 5893 5892 5891 5890 5890 5889 5889 5888 5888 5887 5887 5887 5886 5886 5886 5886 5885 5885 5885 5885 5885 5885 5884 5884 5883 5884 5884 5884 5884 5884 5884 5884
5910 5909 5909 5909 5908 5908 5907 5906 5905 5904 5903 5901 5900 5899 5898 5897 5896 5895 5894 5893 5892 5891 5891 5890 5890 5889 5889 5888 5888 5887 5887 5886 5886 5886 5885 5885 5885 5885 5885 5884 5884 5884 5884 5884 5884 5884 5884 5884 5884
5912 5911 5911 5911 5911 5910 5909 5908 5907 5906 5904 5903 5902 5901 5900 5899 5897 5896 5895 5894 5893 5893 5892 5891 5891 5890 5890 5889 5889 5888 5888 5887 5887 5886 5886 5886 5885 5885 5885 5885 5884 5884 5884 5884 5884 5884 5884 5884 5884
5913 5913 5913 5913 5913 5913 5911 5910 5909 5908 5906 5906 5904 5903 5902 5901 5899 5898 5897 5896 5895 5894 5893 5892 5892 5891 5890 5890 5890 5889 5888 5888 5887 5887 5886 5885 5885 5885 5885 5885 5884 5884 5884 5884 5884 5884 5884 5884 5884
5915 5916 5916 5915 5915 5914 5913 5912 5910 5909 5909 5908 5906 5905 5903 5902 5901 5900 5898 5897 5896 5895 5894 5893 5893 5892 5891 5891 5890 5890 5889 5888 5888 5887 5886 5885 5885 5885 5885 5885 5885 5884 5884 5884 5884 5884 5884 5884 5883
5917 5918 5919 5919 5917 5916 5917 5915 5912 5910 5910 5909 5908 5907 5906 5904 5903 5901 5900 5899 5898 5896 5895 5895 5894 5893 5892 5891 5890 5890 5890 5889 5888 5887 5886 5885 5885 5885 5885 5885 5885 5885 5884 5884 5884 5884 5884 5884 5884
5921 5921 5921 5921 5920 5918 5918 5917 5915 5913 5912 5911 5910 5909 5907 5906 5905 5903 5901 5900 5899 5897 5896 5896 5895 5894 5892 5891 5891 5890 5890 5889 5888 5888 5887 5886 5885 5885 5885 5885 5885 5885 5885 5885 5884 5885 5885 5884 5884
5923 5923 5922 5922 5921 5920 5919 5918 5917 5916 5914 5913 5912 5910 5909 5908 5906 5904 5903 5901 5900 5898 5897 5896 5895 5894 5893 5892 5891 5891 5890 5889 5888 5888 5887 5887 5886 5886 5886 5885 5885 5885 5885 5885 5885 5884 5884 5884 5884
5924 5924 5922 5923 5922 5921 5920 5919 5918 5917 5916 5915 5914 5912 5911 5909 5908 5906 5904 5903 5901 5900 5899 5898 5896 5895 5894 5893 5892 5891 5890 5889 5888 5888 5888 5887 5887 5886 5886 5886 5885 5885 5885 5885 5885 5884 5885 5884 5884
5925 5925 5923 5923 5922 5922 5921 5921 5920 5918 5917 5916 5915 5914 5912 5911 5909 5908 5906 5904 5902 5901 5900 5899 5898 5897 5895 5894 5893 5892 5890 5890 5889 5888 5888 5887 5887 5887 5886 5886 5886 5885 5885 5885 5885 5885 5884 5884 5884
5925 5925 5924 5923 5923 5922 5922 5921 5921 5919 5918 5917 5916 5914 5913 5911 5910 5909 5907 5905 5904 5902 5901 5900 5899 5898 5896 5895 5893 5892 5891 5890 5890 5889 5888 5888 5887 5887 5886 5886 5886 5885 5885 5885 5884 5884 5884 5884 5884
5924 5924 5924 5924 5924 5924 5923 5921 5920 5919 5918 5917 5916 5915 5914 5913 5911 5910 5908 5907 5905 5904 5902 5901 5900 5898 5897 5896 5894 5893 5892 5891 5890 5889 5889 5888 5887 5887 5886 5886 5885 5885 5884 5884 5884 5884 5883 5883 5883
5924 5923 5924 5924 5923 5923 5923 5922 5921 5919 5918 5916 5916 5916 5915 5913 5912 5910 5908 5907 5906 5904 5903 5902 5900 5899 5897 5896 5895 5894 5893 5892 5890 5890 5889 5888 5887 5887 5886 5886 5885 5884 5884 5884 5883 5883 5882 5883 5883
5923 5924 5924 5923 5922 5922 5923 5923 5920 5918 5918 5917 5917 5916 5915 5913 5912 5910 5909 5907 5906 5905 5903 5902 5901 5900 5898 5896 5895 5894 5893 5891 5890 5890 5889 5888 5887 5886 5885 5885 5884 5884 5883 5883 5882 5882 5882 5882 5882
5922 5923 5923 5923 5923 5923 5924 5922 5921 5919 5918 5918 5917 5916 5915 5914 5912 5911 5909 5908 5906 5905 5904 5902 5901 5900 5898 5897 5895 5894 5892 5891 5890 5889 5888 5887 5886 5885 5885 5884 5883 5883 5882 5882 5881 5881 5881 5880 5880
5920 5922 5923 5924 5924 5923 5923 5921 5920 5919 5918 5917 5917 5916 5915 5914 5912 5911 5909 5908 5906 5905 5903 5902 5901 5899 5898 5897 5895 5894 5892 5891 5890 5888 5887 5886 5885 5884 5883 5882 5882 5881 5880 5880 5880 5880 5879 5879 5878
5918 5918 5921 5922 5923 5923 5921 5920 5918 5918 5917 5916 5916 5915 5914 5913 5912 5910 5909 5907 5906 5904 5903 5902 5900 5898 5897 5896 5895 5893 5891 5890 5889 5887 5886 5885 5884 5883 5882 5881 5880 5879 5879 5878 5878 5878 5877 5877 5876
5916 5917 5919 5920 5919 5920 5920 5918 5916 5917 5916 5916 5915 5914 5913 5912 5911 5909 5908 5907 5905 5904 5902 5901 5899 5898 5896 5895 5893 5892 5890 5889 5888 5886 5885 5883 5882 5881 5880 5879 5878 5877 5877 5877 5876 5876 5875 5875 5874
5914 5915 5916 5918 5918 5919 5919 5918 5914 5915 5915 5914 5913 5912 5911 5910 5909 5908 5907 5906 5904 5903 5901 5900 5898 5897 5895 5894 5892 5890 5889 5887 5886 5885 5883 5882 5880 5879 5878 5877 5875 5875 5875 5875 5874 5874 5873 5872 5871
5911 5912 5913 5915 5915 5915 5916 5918 5913 5912 5912 5911 5910 5910 5909 5908 5907 5906 5905 5904 5902 5901 5900 5898 5897 5895 5893 5892 5890 5889 5887 5885 5884 5883 5881 5880 5879 5878 5876 5875 5874 5873 5873 5872 5872 5871 5870 5870 5869